Location: Middle Street
(51.7167°N, 0.0333°E)
Time: 18:34:48
(UTC+00:00)

Meteor 1-24 Rocket - Pass Details

Date: 20 January 2021
Orbit: 791 x 927 km, 81.3° (Epoch: 26 February)

Event Time Altitude Azimuth Distance (km) Brightness Sun altitude
Rises 17:41:00 0° 184° (S) 3,313 7.1 -11.1°
Reaches altitude 10° 17:43:23 10° 183° (S) 2,374 6.3 -11.4°
Maximum altitude 17:48:42 74° 100° (E) 830 3.5 -12.2°
Drops below altitude 10° 17:54:00 10° 16° (NNE) 2,370 5.7 -13.0°
Sets 17:56:23 0° 15° (NNE) 3,307 6.5 -13.3°
